GFSMW_sfc_temp_132.txt.gz
Temp
59 60 61 62 63 62 61 60 59 58 61 63 63 65 63 67 68 67 63 63 63 63 64 66 67 68 68 65 63 64 66 73 75 68 66 65 66 70 75 77 80 80 81
58 59 60 61 60 59 58 59 58 58 58 61 61 61 62 65 65 64 63 61 60 61 62 62 63 64 65 66 67 65 60 63 67 65 66 62 66 72 75 75 76 77 79
58 59 59 57 56 54 54 55 55 56 56 56 60 61 63 63 62 61 61 60 59 59 59 60 60 61 62 63 64 65 64 59 61 64 63 61 62 72 74 69 71 73 75
58 59 58 56 55 55 55 56 55 55 55 55 55 53 56 55 57 58 59 59 58 57 57 57 57 56 59 59 61 64 63 59 55 59 62 65 70 64 64 65 67 71 69
59 57 56 56 57 56 55 54 55 53 53 53 53 54 52 54 55 56 54 56 56 57 56 53 52 53 54 55 53 55 58 61 62 61 59 59 66 69 64 60 64 64 67
58 56 55 56 56 56 54 54 53 53 53 52 51 50 49 49 50 50 50 52 53 55 55 52 50 49 48 49 51 51 52 51 53 58 61 58 55 61 65 62 67 67 71
56 54 53 54 53 53 53 53 52 50 51 49 49 49 48 48 47 45 47 46 48 49 50 48 47 48 48 47 48 48 49 50 50 51 54 61 63 58 56 62 67 67 74
52 52 52 52 52 51 51 51 50 48 48 47 46 46 45 45 45 44 43 44 43 44 46 46 46 46 46 46 46 46 46 47 48 49 50 51 57 63 60 55 59 64 69
49 52 51 51 51 50 48 47 46 47 45 44 44 44 44 43 42 42 43 42 42 43 44 44 44 44 44 44 44 44 44 45 46 47 49 50 52 56 62 61 57 61 61
48 49 50 49 50 49 49 47 45 44 44 43 43 43 42 42 42 42 40 40 40 41 41 41 42 43 43 44 43 42 43 42 43 46 46 49 51 52 54 61 63 65 63
50 47 49 48 48 48 47 45 43 42 42 43 43 42 41 42 42 40 40 39 40 39 40 41 41 41 42 42 41 40 41 42 42 44 45 46 49 49 52 53 60 65 67
49 46 45 47 47 46 46 45 44 41 40 41 42 41 41 40 39 38 39 38 38 39 39 39 39 40 40 41 40 39 39 39 39 41 42 44 48 47 50 51 53 60 66
47 44 44 45 45 45 44 45 44 42 42 41 40 40 39 37 36 36 37 37 37 38 38 39 38 38 38 38 38 38 36 36 38 39 40 42 45 46 48 49 51 54 62
45 46 46 44 43 43 43 43 42 42 42 41 39 38 37 37 36 36 36 35 36 36 36 37 37 37 37 36 37 37 36 34 34 36 37 41 42 43 46 46 50 53 54
44 44 41 42 42 42 42 42 40 40 40 37 35 33 35 36 36 35 35 36 36 35 35 35 35 35 35 34 34 36 35 34 32 32 34 35 36 38 38 43 47 49 51
41 38 39 41 39 39 40 38 35 35 36 34 30 30 32 32 31 32 32 34 35 34 32 32 33 33 34 31 31 32 33 32 30 29 30 32 34 36 36 36 35 35 39
37 36 37 37 37 36 37 34 33 35 33 31 30 30 30 30 30 31 31 31 31 32 31 30 30 30 31 32 30 30 30 29 28 28 28 29 31 32 34 34 33 33 33
36 35 35 35 34 35 35 33 33 31 31 30 29 30 29 29 30 29 30 30 31 30 30 29 30 29 30 30 30 29 28 27 26 27 28 28 28 29 29 30 30 30 31
32 32 32 32 32 32 32 31 31 31 30 28 28 29 28 28 29 28 29 30 30 30 29 29 28 28 28 30 29 28 27 26 25 25 26 27 27 29 30 27 26 27 27
31 30 31 32 32 32 33 31 29 28 27 28 28 30 30 29 28 29 29 30 30 29 30 29 28 28 27 29 29 26 26 24 24 25 25 27 26 27 28 26 26 25 27
30 32 31 31 31 32 33 30 29 27 28 29 29 28 30 30 30 30 30 30 29 29 29 29 29 28 28 27 28 27 24 24 21 22 22 24 27 27 27 27 25 24 27
32 34 33 30 30 31 31 30 28 30 31 29 28 28 29 30 30 30 30 30 30 29 28 28 28 29 28 28 27 27 25 25 23 21 23 24 26 26 26 24 25 26 27
32 35 34 32 33 35 34 29 30 32 31 31 28 28 29 30 30 30 30 31 30 29 28 28 26 26 27 28 27 26 25 24 23 25 24 24 24 24 24 25 24 24 24
32 34 33 32 33 35 35 35 34 33 32 30 30 31 29 29 30 33 32 30 29 28 28 26 25 26 25 25 26 26 26 24 24 25 25 23 24 24 23 24 24 23 24
33 34 34 34 34 35 35 36 36 36 33 32 32 32 32 31 29 28 29 29 27 27 26 26 25 23 22 23 24 24 23 23 24 25 24 23 23 23 23 23 23 24 24
33 33 34 34 34 34 33 34 36 35 33 31 30 30 31 30 30 30 27 26 25 25 25 25 26 25 24 24 24 24 24 24 24 24 22 21 21 21 21 21 22 23 22

GFSMW_sfc_temp_135.txt.gz
Temp
65 66 66 68 68 66 65 64 62 62 65 67 66 67 66 69 70 70 67 66 64 64 65 67 67 69 69 68 69 71 66 65 71 65 67 72 74 72 74 75 74 73 78
65 64 65 65 63 62 62 62 62 61 61 64 65 65 66 68 69 68 67 65 63 63 64 62 63 65 65 65 67 67 67 67 68 61 62 61 70 71 71 70 67 67 71
65 64 62 61 62 60 61 62 62 61 60 60 63 63 65 66 65 64 65 63 63 62 61 61 61 60 61 62 63 64 64 64 68 65 59 58 59 67 75 66 66 67 70
66 65 63 62 61 61 61 61 61 60 60 59 60 58 59 58 60 61 62 61 62 61 61 59 58 57 58 57 59 63 60 61 61 66 67 63 62 59 63 71 68 70 71
65 63 62 63 62 61 60 60 61 59 59 58 57 57 55 57 59 58 56 58 59 59 60 57 55 54 54 54 53 54 55 56 56 59 63 65 65 63 61 60 67 71 73
65 63 62 62 61 61 60 59 59 58 57 56 55 54 52 52 52 52 52 54 55 56 55 53 51 49 50 50 50 50 50 50 51 53 56 58 59 61 63 60 65 68 71
64 61 61 61 59 58 58 58 57 54 55 54 53 52 51 50 50 49 48 47 48 49 48 47 46 47 47 47 47 47 47 48 48 49 49 53 57 63 65 61 56 58 68
60 59 59 59 58 56 56 56 55 53 52 51 51 51 50 49 49 47 46 46 44 45 45 45 45 45 46 46 45 45 45 46 47 47 48 49 51 54 59 62 61 54 57
57 59 58 57 57 56 53 52 52 52 50 50 50 50 49 47 45 45 45 43 43 44 44 44 43 43 44 45 44 43 43 44 44 45 46 47 49 51 53 57 62 59 50
55 57 57 56 56 55 54 51 50 50 50 50 50 49 47 46 45 44 41 41 41 42 42 42 42 42 43 43 43 42 43 43 43 44 44 45 47 48 51 52 55 60 59
54 56 57 56 55 54 53 51 49 48 48 48 48 47 45 44 43 42 41 40 41 41 41 41 41 41 41 41 41 41 41 40 40 41 42 43 45 46 48 50 51 52 57
59 57 55 54 54 53 53 51 50 47 45 47 47 45 44 44 42 40 41 40 40 41 40 40 39 39 39 39 38 38 39 38 37 37 38 40 42 45 48 48 49 50 53
57 54 53 53 52 51 50 50 49 47 47 47 46 45 44 43 41 40 39 39 39 39 39 39 38 37 37 36 37 38 38 37 37 36 34 36 37 41 44 46 48 49 52
54 53 52 52 51 50 49 48 46 47 47 45 43 41 41 41 41 41 40 39 39 38 37 37 37 36 36 35 35 37 36 35 35 35 34 33 34 36 38 41 44 47 48
53 52 51 49 49 47 47 46 45 44 45 41 38 37 38 39 38 38 39 40 39 39 36 36 36 36 35 34 33 34 34 32 32 33 33 32 33 35 36 37 36 39 43
52 50 48 47 44 43 44 42 40 40 40 38 33 32 35 34 33 34 35 37 37 36 33 33 34 33 34 32 32 32 32 30 29 29 30 30 31 32 33 34 34 33 34
48 45 43 41 40 41 42 39 38 39 36 33 32 32 32 31 31 33 34 32 32 33 32 31 31 30 30 31 31 32 31 30 27 26 27 28 29 29 30 31 31 32 33
43 39 38 38 39 40 38 37 36 34 33 31 31 31 31 31 32 31 31 31 32 31 31 30 30 30 29 30 30 30 30 29 27 26 25 25 26 27 28 29 29 29 30
34 34 35 34 35 34 34 33 33 34 32 30 30 30 31 30 31 30 30 31 32 31 31 31 29 28 28 30 29 29 28 26 25 25 25 25 25 28 29 26 26 27 27
32 32 33 33 33 33 35 32 30 30 29 29 30 31 31 31 30 31 31 31 32 31 32 31 30 30 27 29 29 28 27 25 24 24 25 27 26 27 27 24 24 24 26
32 34 32 32 32 34 35 31 29 28 29 30 30 31 32 31 32 31 32 32 31 32 31 31 31 29 28 28 29 28 26 25 25 22 23 25 28 28 27 26 24 24 26
32 35 33 31 32 33 32 30 29 30 31 30 30 30 31 32 32 32 32 32 32 31 31 30 30 30 28 28 28 28 27 27 25 23 23 25 27 27 28 25 26 26 26
35 37 34 32 34 37 36 30 31 34 33 32 30 30 31 32 32 31 31 32 32 32 30 29 28 27 28 27 27 27 27 27 26 27 26 27 27 27 26 27 26 25 24
35 37 33 33 36 39 38 36 36 35 33 32 32 33 32 31 32 34 32 30 29 29 29 27 25 26 25 25 26 26 27 26 27 28 27 26 26 25 25 25 25 24 24
35 36 35 35 38 40 39 40 40 39 36 35 35 33 33 32 29 27 28 28 25 25 24 24 25 21 20 22 25 26 25 27 27 28 27 25 25 24 23 23 23 23 24
36 36 36 37 38 39 38 39 39 39 35 33 33 33 33 32 33 31 26 26 25 25 25 25 24 24 23 24 25 26 26 26 27 26 23 22 23 23 23 22 22 23 22

GFSMW_sfc_temp_138.txt.gz
Temp
66 66 66 65 64 62 62 61 59 58 59 60 59 60 59 61 62 62 61 59 59 59 58 57 58 59 58 58 60 61 60 61 63 60 62 64 67 67 67 68 69 70 72
64 64 64 62 61 60 60 60 60 58 58 59 60 59 59 60 61 60 60 58 58 57 58 56 55 55 54 56 56 57 57 59 62 58 58 56 60 64 67 68 67 68 69
63 63 62 61 61 59 58 59 58 57 56 56 58 58 59 58 57 58 58 56 58 56 56 55 53 52 53 52 52 53 52 51 55 59 56 53 53 57 63 64 65 66 66
66 64 62 61 59 58 58 59 58 57 57 55 54 53 52 51 53 53 54 55 55 55 55 51 50 49 49 49 49 52 49 49 48 54 59 57 56 52 54 60 61 63 64
65 63 62 61 60 59 57 57 57 56 55 54 53 51 49 51 52 51 50 50 51 52 51 47 47 45 47 47 46 47 47 48 47 47 49 51 54 56 52 50 56 63 65
64 63 62 62 59 59 57 56 55 54 54 53 51 49 47 47 47 46 45 45 47 47 46 46 45 45 45 45 45 46 45 45 46 47 48 47 47 50 51 51 54 56 59
63 60 59 60 58 56 55 55 54 51 51 51 50 48 47 46 45 44 43 43 42 42 43 43 43 43 44 44 44 44 44 44 44 45 45 47 47 49 49 48 49 52 58
62 61 61 59 56 55 54 53 52 50 50 49 48 48 47 45 44 43 43 42 41 42 43 42 43 43 43 43 43 42 43 44 43 43 44 44 46 48 48 47 47 45 50
58 59 59 57 55 53 51 50 50 49 49 48 48 46 45 44 43 42 42 41 41 42 42 42 41 42 42 42 41 41 40 41 41 42 42 43 44 46 47 49 48 46 43
58 58 57 55 55 53 51 49 49 48 48 48 47 46 44 44 43 42 40 40 41 41 41 40 40 40 40 40 40 39 40 39 39 40 39 40 42 44 45 46 48 49 47
57 57 56 55 54 53 51 49 48 47 46 47 46 45 44 43 42 40 40 40 40 40 39 39 39 38 37 37 37 37 38 37 37 38 37 37 38 40 40 43 45 46 48
56 56 56 53 52 53 51 49 48 45 45 46 45 44 43 42 40 39 39 39 39 39 39 38 37 37 36 35 35 35 36 35 34 34 34 34 37 36 38 40 42 45 47
55 55 54 52 52 51 51 49 48 46 46 45 44 42 41 40 39 38 39 40 39 38 38 38 36 35 34 33 34 35 34 33 33 32 32 32 33 33 35 38 40 44 47
50 53 52 52 51 50 49 47 45 46 45 43 41 39 38 38 37 38 38 38 38 35 35 36 35 33 32 33 33 33 32 31 31 31 31 31 31 32 33 35 34 37 40
47 50 51 49 48 47 46 45 44 43 42 38 35 35 36 36 36 36 36 35 35 34 33 33 33 31 31 32 32 32 31 29 28 28 28 29 31 33 33 32 31 32 33
52 52 50 48 47 45 43 41 40 39 38 34 30 30 33 32 31 33 32 33 33 32 30 29 30 28 31 32 33 31 29 28 26 24 25 26 28 29 31 32 32 31 30
49 48 46 43 42 41 40 37 37 37 34 31 31 29 29 28 27 31 31 29 29 29 28 27 27 26 26 31 32 31 26 24 23 22 24 24 26 27 27 29 30 30 32
46 42 39 39 38 38 37 36 35 33 31 29 28 30 28 25 29 26 29 27 29 28 27 26 25 25 26 31 30 30 24 23 23 22 24 23 24 27 26 25 25 26 27
35 35 35 35 34 33 34 33 32 32 30 27 26 26 24 24 26 24 27 28 29 28 27 26 24 23 23 31 30 26 24 23 22 23 24 25 24 29 29 23 23 23 24
33 32 33 33 32 32 34 29 28 27 25 26 27 28 27 25 25 28 27 29 30 28 29 26 25 27 22 30 30 27 23 22 21 22 23 28 27 29 28 22 21 20 22
32 33 32 31 32 34 33 29 27 26 26 27 28 28 31 30 30 30 30 30 29 29 26 27 25 23 25 24 30 30 23 22 21 21 21 22 28 29 28 27 23 22 23
33 34 32 31 32 33 31 28 26 28 30 28 28 28 29 31 31 30 30 29 28 26 26 26 24 24 23 27 28 29 28 27 22 20 21 23 28 27 28 25 26 26 23
33 35 33 31 32 34 33 28 28 31 31 30 28 28 31 31 30 28 27 27 28 27 26 23 21 20 20 21 27 27 27 27 24 24 26 28 28 27 24 26 25 22 20
34 35 33 32 32 36 36 33 34 34 32 31 31 31 29 28 29 29 26 23 22 22 22 22 18 18 19 20 22 22 22 24 24 23 22 22 25 22 21 22 22 20 20
34 35 34 34 36 38 36 37 37 36 34 33 32 31 30 27 25 24 25 23 21 22 19 18 19 16 15 19 24 24 21 22 23 21 20 18 18 18 18 19 20 19 19
35 35 35 37 38 38 37 38 39 37 34 33 32 31 31 30 26 24 21 26 25 25 25 25 22 20 23 25 25 27 26 26 26 19 16 14 14 15 15 15 15 17 17

GFSMW_sfc_temp_141.txt.gz
Temp
58 58 56 54 54 53 53 52 51 51 51 50 50 51 50 52 54 55 55 54 54 54 52 52 51 51 51 52 53 53 52 54 55 55 58 60 62 63 65 66 67 67 69
56 57 54 53 51 51 51 51 50 50 49 49 49 49 49 50 51 53 52 53 53 52 51 48 48 48 47 48 48 48 47 49 52 49 52 52 57 59 62 63 65 65 66
55 55 55 51 49 49 49 50 49 48 48 48 48 48 48 48 48 48 48 49 50 47 46 46 45 44 45 44 44 44 45 43 46 47 48 48 49 53 58 59 60 62 62
57 56 53 49 48 48 49 49 49 48 49 47 45 43 42 41 43 44 45 46 47 46 45 44 43 43 43 43 44 46 46 45 42 46 50 49 49 49 49 55 56 58 60
56 54 52 50 49 48 47 46 47 47 46 45 44 41 40 41 42 42 41 42 43 44 44 43 42 42 44 44 44 44 44 45 44 44 45 44 46 49 48 47 51 54 57
55 54 53 53 48 47 46 45 46 45 45 44 43 41 39 39 39 38 38 39 40 41 42 43 43 43 43 42 42 43 44 43 44 44 45 44 43 44 45 44 45 46 52
53 52 51 49 48 46 45 45 45 44 44 43 42 41 40 39 38 37 36 37 37 38 38 40 40 41 42 42 42 41 41 42 41 42 42 43 44 46 46 44 44 45 49
53 52 51 48 47 46 44 44 44 43 43 42 42 41 40 39 38 36 36 37 37 38 38 38 39 40 40 39 40 40 40 41 40 40 40 41 42 44 44 44 42 40 43
52 51 50 47 45 43 43 42 43 43 43 42 40 39 39 38 36 36 36 38 37 40 37 37 37 37 37 36 38 38 38 38 38 38 38 38 39 41 42 44 44 42 37
53 51 50 48 45 44 43 42 42 42 42 41 40 39 39 41 40 37 37 37 37 37 38 36 37 35 35 34 35 36 36 35 35 36 36 36 37 38 38 41 42 43 41
49 47 49 49 46 45 44 42 41 41 40 40 39 38 37 39 39 39 38 36 36 39 37 35 35 33 33 33 33 35 33 32 31 33 33 33 35 34 36 38 38 39 40
50 48 50 48 46 45 44 42 40 39 40 40 39 37 37 36 34 35 35 34 33 35 35 34 33 31 32 32 31 33 31 29 28 28 30 31 33 31 35 36 37 37 40
48 47 46 46 47 46 44 43 41 39 39 38 36 35 35 34 33 33 33 33 32 32 34 32 30 30 30 31 32 33 30 28 28 27 27 28 30 31 32 34 33 35 36
47 46 45 45 43 43 43 42 40 38 38 36 34 32 31 31 31 32 32 32 31 30 31 30 29 30 30 31 31 30 28 27 27 28 27 27 28 29 30 32 31 33 33
45 45 43 43 42 41 41 40 38 36 35 32 30 29 30 30 31 30 30 30 29 29 29 29 28 29 30 32 28 27 26 24 24 26 26 27 30 31 31 30 29 29 30
45 44 45 44 43 40 37 37 34 34 33 28 26 25 29 28 26 27 27 28 28 26 26 26 26 26 30 32 32 27 24 24 22 22 24 26 28 28 29 30 30 29 28
44 45 44 40 37 35 36 34 33 32 29 27 27 25 24 24 19 25 26 22 21 22 23 21 22 22 26 31 31 29 22 21 19 21 21 24 26 27 25 26 27 27 29
42 37 35 34 33 33 34 32 31 29 27 24 24 27 23 18 22 17 15 16 17 15 15 20 20 21 25 31 29 28 16 15 18 21 21 22 23 26 24 23 23 23 24
33 31 31 31 31 32 32 30 28 27 26 20 19 17 17 15 16 14 15 16 20 20 22 15 17 19 19 31 30 22 18 13 16 19 22 23 23 29 28 22 20 21 22
32 31 31 30 31 31 31 27 25 24 21 21 21 22 20 18 16 16 19 20 20 22 24 21 20 25 16 29 31 24 15 18 18 18 21 29 27 28 28 21 20 17 19
31 31 29 29 30 30 29 25 23 21 20 25 26 24 28 26 22 22 22 22 22 25 22 20 19 18 21 19 29 30 21 19 17 19 19 22 28 28 27 26 21 20 20
31 31 30 28 30 29 27 24 23 24 26 25 26 25 24 29 28 26 24 26 24 22 20 19 18 17 16 25 27 28 28 27 21 19 21 22 27 26 27 23 24 24 19
31 32 30 30 30 31 29 23 24 28 28 28 26 23 28 27 24 22 21 21 22 21 19 16 14 14 16 15 25 27 27 26 19 20 23 25 24 23 21 24 23 19 17
30 31 30 30 29 31 31 28 29 30 28 28 27 26 25 25 24 23 22 20 18 17 18 16 13 10 14 15 16 16 16 19 19 17 16 16 20 16 16 17 18 17 17
32 31 30 29 30 33 31 33 32 32 29 28 27 26 25 23 22 21 20 21 14 18 15 11 10 7 9 18 25 23 19 18 19 15 15 13 13 12 12 13 15 15 15
32 31 31 31 32 33 31 33 33 32 29 28 27 26 24 23 22 21 20 26 25 26 26 25 20 17 24 26 26 25 24 23 22 14 10 8 8 9 10 10 11 12 12

GFSMW_sfc_temp_144.txt.gz
Temp
53 53 52 51 50 49 48 48 48 48 47 47 46 48 46 47 49 50 49 48 46 47 46 45 45 46 45 45 46 45 46 48 49 50 51 54 58 61 63 64 64 64 68
50 52 50 49 48 47 47 47 47 46 46 45 44 45 45 46 45 47 46 46 44 44 45 42 42 43 43 43 43 43 42 44 46 42 45 49 53 54 57 60 62 62 64
49 51 50 46 45 45 45 46 45 45 44 44 44 44 44 44 43 42 42 43 44 43 43 42 41 41 41 41 41 43 42 40 42 44 44 46 46 46 53 55 56 59 59
52 51 49 45 44 44 44 45 45 44 45 43 41 40 39 37 38 38 40 41 42 42 42 41 40 40 42 42 43 45 44 43 40 43 49 47 45 44 43 50 53 53 55
51 50 48 47 46 44 42 43 44 43 43 41 40 38 37 37 38 37 37 38 39 41 41 40 39 39 41 42 42 42 42 43 42 42 42 43 45 46 44 43 47 50 52
52 50 49 49 45 43 41 42 43 42 41 40 39 37 36 35 35 35 34 35 36 38 38 39 38 38 38 38 39 41 41 41 41 41 41 41 40 41 41 41 42 43 47
49 47 46 45 44 42 41 42 42 41 40 39 38 37 36 35 34 34 35 35 35 35 35 36 36 35 35 36 38 39 39 39 39 39 39 40 40 42 42 40 40 40 44
49 47 46 45 44 43 41 41 41 40 40 39 37 37 37 35 34 34 34 34 34 35 35 35 35 35 35 34 37 38 36 37 37 37 37 37 38 39 39 37 37 36 40
46 45 45 44 44 45 41 40 41 40 39 38 37 36 36 35 34 34 35 34 35 38 34 34 33 34 33 33 34 33 32 33 32 33 34 35 36 37 37 38 37 35 33
47 47 45 45 45 44 43 42 41 40 39 38 38 37 36 36 35 34 33 33 34 34 33 33 31 32 32 32 33 31 31 30 30 31 30 32 32 33 35 34 36 37 34
44 45 45 44 45 44 43 42 40 39 39 39 37 36 35 35 35 34 33 32 32 33 32 32 30 30 30 31 33 30 29 28 28 28 28 28 30 30 34 35 35 35 35
46 46 45 43 42 43 43 42 41 40 39 38 37 35 34 34 32 32 31 30 30 32 30 30 29 30 30 30 30 28 27 26 26 26 27 27 31 30 31 33 33 32 34
46 44 43 43 43 43 43 41 41 39 38 36 35 33 32 32 30 30 30 30 29 29 28 29 29 29 30 28 28 26 26 26 26 26 26 27 29 28 28 32 31 31 34
45 43 42 43 44 43 41 40 38 38 36 35 33 31 30 30 29 30 29 29 28 28 27 28 28 30 30 28 28 26 25 25 26 27 28 27 28 27 28 30 28 29 30
43 43 42 41 41 39 39 38 35 35 34 32 30 29 30 30 30 29 28 28 27 27 27 27 28 29 30 30 25 26 25 24 24 25 26 28 30 30 29 28 27 26 27
43 43 42 41 39 38 35 34 32 31 32 29 26 26 29 27 26 26 25 26 25 24 22 23 24 25 30 31 29 25 23 23 22 21 23 25 27 26 27 29 28 27 25
43 42 41 40 36 35 34 32 32 32 29 28 27 23 23 23 19 25 24 20 16 18 19 15 16 17 22 30 29 27 20 18 16 17 19 22 24 25 22 25 26 26 27
41 41 38 34 33 33 32 31 31 29 27 25 24 25 23 20 22 17 15 11 10 8 7 10 14 17 24 30 29 27 10 13 14 13 16 17 21 25 22 19 19 20 21
32 31 31 31 32 32 32 30 28 26 26 21 21 21 22 20 20 14 16 14 14 14 9 7 11 16 17 31 29 20 10 9 15 15 19 20 22 28 26 18 16 17 17
30 31 32 31 31 30 31 28 26 24 23 23 24 24 22 19 18 16 14 19 20 15 14 16 15 22 17 30 30 21 8 15 16 18 17 28 26 27 26 18 16 14 14
31 31 30 29 29 30 28 25 25 23 25 26 26 26 27 24 21 19 16 23 22 20 11 12 12 13 19 19 30 28 18 14 16 16 17 20 26 27 25 24 18 17 16
29 30 29 27 26 27 27 24 23 25 27 25 25 26 25 27 25 19 20 19 18 16 10 10 13 16 15 25 27 28 26 22 15 13 15 18 24 23 24 20 22 21 16
29 29 28 27 27 28 28 24 25 28 28 28 26 25 25 25 23 17 14 18 19 16 15 14 9 10 14 13 25 26 25 22 14 16 19 21 20 19 17 21 19 15 14
30 29 30 28 27 29 29 28 28 29 28 28 26 26 23 21 21 22 20 17 15 15 17 15 11 11 14 14 16 16 15 17 15 12 11 10 16 11 11 12 13 11 11
30 29 29 29 28 29 29 29 30 29 28 27 27 26 25 23 20 18 17 18 10 17 13 8 9 6 8 16 23 19 15 13 14 9 10 8 8 8 8 9 10 9 9
29 28 29 29 30 30 29 30 30 30 28 27 26 23 22 21 21 20 19 26 25 26 25 25 21 18 24 25 24 23 22 20 17 10 5 3 4 5 6 6 6 6 6

GFSMW_sfc_temp_147.txt.gz
Temp
49 50 49 48 47 46 47 46 46 46 46 45 45 44 42 43 44 44 44 43 43 43 41 41 41 42 42 41 43 42 42 43 44 44 46 49 54 55 59 61 62 62 64
48 49 47 46 46 45 45 45 44 44 44 43 42 43 42 42 41 42 42 42 42 42 43 40 40 40 40 40 40 40 39 40 43 38 41 47 50 50 52 55 59 61 62
47 48 47 44 43 42 43 43 42 42 42 42 42 42 42 40 39 38 39 40 41 41 40 40 39 39 39 38 39 40 38 38 39 41 42 41 43 43 49 50 52 52 53
49 48 46 42 42 40 42 42 42 42 42 41 40 38 36 34 35 35 36 38 40 39 40 39 38 38 38 38 39 41 39 40 38 41 46 45 43 40 39 46 48 48 50
48 46 44 43 41 41 39 40 41 40 40 39 38 37 35 34 35 35 35 36 37 38 38 38 36 36 36 36 36 38 38 40 40 39 40 39 41 44 41 40 44 47 48
48 46 46 44 40 40 39 40 41 39 38 38 37 35 33 33 33 33 32 33 35 35 36 36 35 34 34 34 35 38 39 37 38 39 39 38 37 37 38 37 38 39 43
44 43 43 42 42 42 40 40 39 38 38 37 36 35 33 33 32 32 32 32 32 33 33 34 33 33 33 34 35 33 34 33 33 34 34 37 37 38 37 36 36 36 40
44 44 43 42 42 42 40 40 39 38 38 37 36 35 35 33 33 33 32 32 32 32 33 32 32 33 33 33 33 32 32 31 31 29 31 33 33 35 35 33 32 30 36
43 43 44 43 44 43 42 41 41 40 38 38 36 34 34 34 33 33 32 31 32 35 31 30 30 31 31 31 31 29 29 29 29 28 30 30 30 31 32 33 34 31 28
44 46 46 44 44 42 42 42 42 40 39 38 37 36 35 35 34 34 32 31 31 31 29 29 28 29 29 29 29 28 29 28 28 29 28 28 29 30 32 32 35 34 31
46 45 43 44 43 41 40 40 40 39 38 38 36 34 35 35 33 31 29 29 29 29 28 28 29 29 29 29 27 28 27 27 27 27 28 28 30 29 30 31 33 31 31
46 44 44 42 40 40 41 40 39 39 38 38 37 35 34 33 31 30 29 30 28 28 28 29 29 29 28 27 26 25 26 25 26 26 27 28 30 28 29 30 28 29 30
43 41 41 40 41 41 41 41 41 39 37 37 35 34 33 32 30 29 29 29 29 28 27 28 28 28 28 27 26 26 25 26 26 28 26 28 28 26 27 30 28 28 31
43 40 40 42 42 41 41 40 38 37 37 35 34 32 31 30 30 29 28 28 28 27 26 27 28 29 27 27 27 26 26 25 26 27 27 27 26 26 26 28 27 28 27
42 41 41 40 41 40 39 37 36 36 34 31 30 29 29 29 29 28 27 27 26 26 26 26 27 28 28 28 24 26 25 24 24 25 26 27 29 29 28 27 25 25 25
42 42 41 40 38 36 35 35 33 32 31 29 26 27 28 27 25 25 24 24 24 22 20 21 23 24 30 30 28 25 23 22 21 20 22 25 26 25 26 27 27 26 23
41 41 40 38 37 35 35 32 31 30 28 28 27 24 23 23 20 24 23 19 15 17 18 12 15 15 17 29 29 26 19 17 13 13 15 22 24 22 19 21 22 22 25
40 39 38 35 34 35 34 31 31 28 28 24 23 26 23 19 22 19 17 15 13 7 4 9 10 15 21 29 28 25 12 11 11 12 13 11 18 23 19 16 15 14 15
30 31 33 33 33 32 31 30 29 28 26 22 21 22 22 21 23 21 17 13 12 10 6 4 10 10 14 29 28 19 12 11 12 12 18 17 18 27 24 15 13 12 13
26 28 32 33 31 30 30 28 25 25 24 24 24 24 23 22 21 20 18 14 11 10 11 13 8 19 14 28 28 20 8 11 10 13 16 26 24 26 25 15 13 10 11
31 32 32 31 30 30 29 26 25 22 24 25 26 26 27 24 22 22 22 20 12 10 8 8 10 12 16 20 28 25 15 7 7 6 13 17 24 25 23 21 16 14 12
29 31 29 28 29 29 28 25 24 24 26 27 26 25 24 28 25 22 22 20 12 8 2 4 10 11 13 26 27 26 22 19 11 6 8 15 21 21 21 17 18 17 11
30 31 29 28 28 29 29 25 24 28 28 28 26 24 25 25 23 21 19 17 14 12 10 9 7 10 15 15 24 24 21 19 9 11 17 18 17 16 13 17 15 10 8
26 29 28 27 27 29 30 28 29 30 29 27 26 25 23 22 22 22 21 17 13 13 15 13 9 10 15 14 13 14 12 14 11 9 7 8 13 7 7 8 8 7 7
30 30 29 29 28 29 28 29 30 29 28 28 26 25 24 21 19 17 15 17 7 15 11 8 13 13 14 17 20 15 12 10 11 6 6 5 6 5 6 6 6 6 6
30 29 30 29 28 28 28 29 30 30 28 27 26 24 22 20 19 19 17 24 23 25 25 24 20 17 23 24 23 22 20 17 15 7 2 1 2 3 4 3 3 3 3